Content
SEND FEEDBACK

Daily
Averages
Monthly
Summary
United States of America

UNDERWOOD, NORTH DAKOTA


Home > North America > United States > North Dakota
Elevation: 2017 feet     Latitude: 47 27N     Longitude: 101 08W

WEATHER
 
SELECT A DAY
Number of Records: 210,668;   Date Range: 1/1/95 - 10/23/14
 
SHARE

PRINT THIS DATA

[ ← Previous Day ]
WEATHER ALMANAC - AUGUST 18, 2014
[ Next Day → ]
[ °C ]   °F
Weather ElementAverageHighLow
Temperature70.6 °F80.1 °F (6:52 pm)63 °F (4:52 am)
Dewpoint61.2 °F64 °F (7:52 am)59 °F (2:52 pm)
Humidity74 %93 % (4:52 am)48 % (5:52 pm)
Barometer29.79 in29.82 in (2:52 pm)29.76 in (2:52 am)
Wind Speed9.5 mph16.1 mph (1:52 pm)
Wind Gust23 mph (2:52 pm)
Weather ElementAverage
Wind DirectionWNW (294.8 °)

Weather ElementTotal
Precipitation0.24 in
Cooling Degree Days6.6 (Base 65)
Growing Degree Days21.6 (Base 50)
Averaged from 23 records on August 18, 2014
WEATHER CONDITIONS BREAKOUT
WIND DIRECTION BREAKOUT
WEATHER BY HOUR - AUGUST 18, 2014
[ °C ]   °F
Local TimeTemperatureDewpointHumidityBarometerVisibilityWind DirectionWind SpeedGust SpeedPrecipitationEventsConditions
12:52 AM63.0 °F60.1 °F90 %29.79 inWest (270°)6.9 mph
1:52 AM64.9 °F60.1 °F84 %29.77 inWNW (290°)8.1 mph
2:52 AM66.0 °F60.1 °F81 %29.76 inWNW (300°)5.8 mph
3:52 AM64.9 °F61.0 °F87 %29.76 inWest (280°)8.1 mph
4:52 AM64.9 °F62.1 °F90 %29.76 inWest (280°)6.9 mph
5:52 AM64.9 °F63.0 °F93 %29.77 inWest (270°)8.1 mph
6:52 AM64.9 °F63.0 °F93 %29.78 inWest (280°)8.1 mph
7:52 AM64.9 °F63.0 °F93 %29.80 inWNW (290°)9.2 mph0.24 in
8:52 AM66.0 °F63.0 °F90 %29.80 inWNW (300°)13.8 mph
9:52 AM68.0 °F62.1 °F81 %29.81 inWNW (300°)16.1 mph
10:52 AM70.0 °F62.1 °F76 %29.82 inNNW (340°)15.0 mph20.7 mph
11:52 AM73.0 °F62.1 °F68 %29.81 inNNW (340°)11.5 mph17.3 mph
12:52 PM75.9 °F60.1 °F58 %29.81 inNorth (350°)16.1 mph23.0 mph
1:52 PM78.1 °F61.0 °F56 %29.80 inNNW (340°)15.0 mph20.7 mph
2:52 PM79.0 °F60.1 °F52 %29.80 inNNW (330°)12.7 mph21.9 mph
3:52 PM79.0 °F60.1 °F52 %29.79 inNW (320°)12.7 mph
4:52 PM80.1 °F60.1 °F50 %29.78 inNNW (330°)10.4 mph
5:52 PM80.1 °F59.0 °F48 %29.78 inNW (310°)10.4 mph
6:52 PM79.0 °F59.0 °F50 %29.77 inNW (320°)9.2 mph
7:52 PM77.0 °F61.0 °F58 %29.77 inNW (320°)3.5 mph
8:52 PM70.0 °F64.0 °F81 %29.79 inCalm
9:52 PM66.9 °F62.1 °F84 %29.80 inWNW (300°)5.8 mph
11:52 PM64.0 °F60.1 °F87 %29.79 inNW (320°)4.6 mph
Hourly data recorded from KN60, located miles away from Underwood, North Dakota







STORIES FROM OUR PARTNERS